CST,Max TemperatureF,Mean TemperatureF,Min TemperatureF,Max Dew PointF,MeanDew PointF,Min DewpointF,Max Humidity, Mean Humidity, Min Humidity, Max Sea Level PressureIn, Mean Sea Level PressureIn, Min Sea Level PressureIn, Max VisibilityMiles, Mean VisibilityMiles, Min VisibilityMiles, Max Wind SpeedMPH, Mean Wind SpeedMPH, Max Gust SpeedMPH,PrecipitationIn, CloudCover, Events, WindDirDegrees
2012-11-1,85,71,56,66,59,54,100,69,37,30.09,30.03,29.99,10,4,0,13,4,15,0.00,1,Fog,259
2012-11-2,86,74,62,70,65,57,100,72,43,30.10,30.06,30.01,10,4,0,24,5,38,0.00,1,Fog,216
2012-11-3,85,72,58,69,62,57,97,73,48,30.15,30.09,30.05,10,5,0,14,4,17,0.00,1,Fog,196
2012-11-4,79,71,62,68,63,59,93,80,67,30.11,30.08,30.04,10,4,0,22,4,31,0.58,3,Fog-Rain,98
2012-11-5,78,69,60,67,62,57,97,81,64,30.09,30.02,29.93,10,5,0,24,6,33,0.77,6,Fog-Rain-Thunderstorm,128
2012-11-6,70,60,50,59,53,47,100,74,47,30.10,30.05,29.99,10,5,0,16,6,32,0.00,4,Fog,342
2012-11-7,75,61,46,50,43,36,93,59,25,30.17,30.11,30.04,10,8,2,17,5,22,0.00,0,,343
2012-11-8,71,59,46,48,42,38,80,57,33,30.28,30.21,30.17,10,10,10,13,5,16,0.00,0,,94
2012-11-9,76,61,46,56,51,42,86,66,46,30.24,30.19,30.15,10,10,9,16,7,21,0.00,0,,144
2012-11-10,82,69,56,60,56,52,86,63,39,30.20,30.15,30.11,10,10,10,21,11,25,0.00,3,,129
2012-11-11,81,74,66,70,65,59,90,72,54,30.11,30.07,30.03,10,8,2,30,16,38,0.54,6,Rain,155
2012-11-12,72,59,46,69,50,37,93,69,45,30.40,30.26,30.09,10,10,7,29,15,35,T,4,Rain,8
2012-11-13,62,51,40,37,33,28,73,53,32,30.46,30.37,30.31,10,10,10,28,11,38,0.00,0,,13
2012-11-14,64,52,39,37,34,30,85,57,28,30.38,30.32,30.27,10,10,10,17,8,21,0.00,0,,6
2012-11-15,67,53,38,41,36,32,85,57,28,30.33,30.27,30.22,10,10,9,12,6,15,0.00,0,,13
2012-11-16,68,56,44,44,41,38,89,61,32,30.33,30.29,30.24,10,10,8,16,8,21,0.00,0,,13
2012-11-17,71,56,40,44,39,36,82,55,28,30.37,30.32,30.27,10,10,10,13,6,16,0.00,0,,18
2012-11-18,71,56,41,44,40,35,83,56,28,30.35,30.29,30.25,10,10,8,10,4,14,0.00,0,,41
2012-11-19,74,59,43,50,46,41,96,66,35,30.31,30.24,30.18,10,9,6,7,3,14,0.00,0,,25
2012-11-20,77,61,45,51,46,42,93,62,31,30.24,30.19,30.14,10,5,0,10,2,15,0.00,1,Fog,336
2012-11-21,79,63,47,55,48,44,93,62,31,30.25,30.20,30.14,10,9,4,15,4,20,0.00,0,,347
2012-11-22,77,61,44,52,47,41,89,60,31,30.25,30.20,30.17,10,10,9,14,3,18,0.00,0,,179
2012-11-23,78,66,54,58,55,50,89,68,46,30.28,30.23,30.19,10,9,6,15,4,18,0.00,6,,308
2012-11-24,63,52,40,49,37,33,78,56,34,30.35,30.27,30.20,10,10,10,20,8,24,0.00,1,,3
2012-11-25,70,54,37,52,43,32,86,65,44,30.21,30.14,30.07,10,10,8,13,5,16,0.00,0,,154
2012-11-26,77,67,56,66,62,54,90,77,64,30.09,30.06,30.03,10,9,1,20,9,25,0.34,5,Rain,149
2012-11-27,68,59,49,65,55,45,93,85,77,30.33,30.18,30.05,10,8,3,21,9,28,0.20,7,Rain-Thunderstorm,14
2012-11-28,65,54,42,46,44,38,93,65,37,30.45,30.37,30.32,10,5,0,14,7,20,0.00,5,,26
2012-11-29,70,56,41,50,44,36,89,65,40,30.36,30.29,30.23,10,10,6,9,4,12,0.00,0,,82
2012-11-30,77,63,48,57,51,45,96,70,43,30.27,30.22,30.17,10,7,2,10,4,14,0.00,0,,115